Regional Weather Roundup
Issued by NWS

Home | Current Version | Previous Version | Graphics & Text | Print | Product List | Glossary Off
Versions: 1 2 3 4 5 6 7 8 9 10 11 12 13 14 15 16 17 18 19 20 21 22 23 24 25 26 27 28 29 30 31 32 33 34 35 36 37 38 39 40 41 42 43 44 45 46 47 48 49 50

000
ASUS43 KLOT 071112
RWRIL

ILLINOIS REGIONAL WEATHER ROUNDUP
NATIONAL WEATHER SERVICE CHICAGO/ROMEOVILLE IL
500 AM CST WED DEC 07 2016

NOTE: "FAIR" INDICATES FEW OR NO CLOUDS BELOW 12,000 FEET WITH NO
SIGNIFICANT WEATHER AND/OR OBSTRUCTIONS TO VISIBILITY.

* THESE STATIONS ARE NOT UNDER NWS QUALITY CONTROL. THEY ALSO MAY NOT
  REPORT WEATHER SUCH AS PRECIPITATION OR FOG.

ILZ001-002-007-009-015-016-024-071200-
NORTHWEST ILLINOIS

CITY           SKY/WX    TMP DP  RH WIND       PRES   REMARKS
MOLINE         CLOUDY    25  14  63 W15G26    30.10S WCI  13
STERLING*      PTCLDY    24  17  74 W21G26    30.07S WCI   9
SAVANNA*       CLOUDY    23  15  71 W15G22    30.07F WCI  10
$$

ILZ003-004-008-010-011-017-018-071200-
NORTH CENTRAL ILLINOIS

CITY           SKY/WX    TMP DP  RH WIND       PRES   REMARKS
ROCKFORD       CLOUDY    23  15  71 W16G22    30.06R WCI  10
FREEPORT*      CLOUDY    21  15  77 W21G28    30.05F WCI   6
ROCHELLE*      MOCLDY    24  18  78 W18       30.06S WCI  10
DE KALB*       PTCLDY    24  18  79 W13G18    30.04S WCI  12
$$

ILZ005-006-012>014-019>023-071200-
NORTHEAST ILLINOIS

CITY           SKY/WX    TMP DP  RH WIND       PRES   REMARKS
CHICAGO-OHARE  MOCLDY    25  17  72 W18       30.03R WCI  11
CHICAGO-MIDWAY CLOUDY    27  17  66 W15       30.05R WCI  15
AURORA         PTCLDY    26  19  74 W20       30.06R WCI  12
LANSING*       CLOUDY    27  21  79 W14G21    30.06R WCI  15
JOLIET*        MOCLDY    28  20  71 W12G17    30.08R WCI  18
WAUKEGAN       CLEAR     24  16  71 W10G20    29.98R WCI  14
DUPAGE AIRPORT PTCLDY    24  17  74 W13       30.04R WCI  12
KANKAKEE*      PTCLDY    28  20  73 W14       30.09R WCI  17
WHEELING       CLEAR     25  16  68 W12       30.04R WCI  14
MORRIS*        MOCLDY    27  20  74 W16G22    30.07R WCI  15
ROMEOVILLE*    PTCLDY    26  22  85 W17       30.06R WCI  13
NORTHERLY ISL    N/A     27  18  69 W8          N/A  WCI  19
$$

LMZ740>746-071200-
SOUTHERN LAKE MICHIGAN

STATION/POSITION SKY/WX   TEMP    WIND        PRES    VSBY  WAVE
                          AIR SEA DIR/SP/G                  HT/PER
                          (F)     (DEG/KT/KT) (MB)    (MI)  (FT/S)
HARRISON CRIB              28     270/ 21/ 23   N/A
BURNHAM HARBOR             27     250/ 10/ 15   N/A
CALUMET HARBOR             27     250/ 10/ 15 1016.7R
BURNS HARBOR               30     250/ 19/ 28 1017.6R
MICHIGAN CITY              31     230/ 28/ 32   N/A
$$

ILZ025>027-034>036-040-047-049-050-058-095>099-071200-
WEST-CENTRAL ILLINOIS

CITY           SKY/WX    TMP DP  RH WIND       PRES   REMARKS
QUINCY         CLOUDY    29  16  58 NW9       30.16S WCI  20
GALESBURG*     CLOUDY    26  19  73 W10       30.12R WCI  16
MACOMB*        CLOUDY    28  18  68 NW12      30.17R WCI  18
JACKSONVILLE*  CLOUDY    29  21  73 W7        30.16S WCI  22
PITTSFIELD*    CLOUDY    30  18  61 NW8       30.17F WCI  22
$$

ILZ028>032-037-038-041>044-048-051>054-059>061-071200-
CENTRAL ILLINOIS

CITY           SKY/WX    TMP DP  RH WIND       PRES   REMARKS
PONTIAC        MOCLDY    29  23  79 W15G21    30.11R WCI  17
BLOOMINGTON    CLOUDY    27  19  72 W14       30.10R WCI  16
DECATUR        MOCLDY    30  19  63 W8        30.14R WCI  22
PEORIA         CLOUDY    28  16  60 W10G18    30.13R WCI  19
LACON*         PTCLDY    27  18  68 W8        30.10S WCI  19
LINCOLN*       MOCLDY    30  20  66 W6        30.15R WCI  24
SPRINGFIELD    MOCLDY    31  21  66 W6        30.17R WCI  25
TAYLORVILLE    PTCLDY    30  21  70 W8        30.17R WCI  22
$$

ILZ033-039-045-046-055>057-062-063-071200-
EAST-CENTRAL ILLINOIS

CITY           SKY/WX    TMP DP  RH WIND       PRES   REMARKS
CHAMPAIGN      PTCLDY    29  21  72 W9        30.12R WCI  20
RANTOUL*       CLOUDY    31  24  74 W8        30.11R WCI  23
MATTOON        PTCLDY    28  20  71 W7        30.14R WCI  21
PARIS*         CLOUDY    28  25  89 W6        30.13R WCI  22
$$

ILZ079-100>102-071200-
SOUTHWEST ILLINOIS

CITY           SKY/WX    TMP DP  RH WIND       PRES   REMARKS
ALTON          CLOUDY    29  20  69 SW5       30.19R WCI  24
BELLEVILLE     PTCLDY    30  19  63 NW2       30.18R
CAHOKIA*       MOCLDY    32  18  56 W5        30.20R WCI  27
SPARTA*        PTCLDY    30  22  72 CALM      30.21R
$$

ILZ064>066-069>071-074>076-080>082-084>086-088>090-092>094-071200-
SOUTH-CENTRAL ILLINOIS

CITY           SKY/WX    TMP DP  RH WIND       PRES   REMARKS
CARBONDALE     PTCLDY    30  25  81 NW3       30.19R
CAIRO*         PTCLDY    33  26  73 N9        30.19R WCI  26
EFFINGHAM*     MOCLDY    30  24  77 W5        30.18R WCI  25
MARION         MOCLDY    32  25  74 CALM      30.20R
CENTRALIA*     PTCLDY    30  25  81 CALM      30.18R
SALEM*         PTCLDY    32  22  67 W3        30.19R
METROPOLIS*    PTCLDY    33  27  76 CALM      30.19R
$$

ILZ067-068-072-073-078-083-087-091-071200-
SOUTHEAST ILLINOIS

CITY           SKY/WX    TMP DP  RH WIND       PRES   REMARKS
LAWRENCEVILLE  CLOUDY    28  23  81 SW5       30.17R WCI  23
FLORA*         PTCLDY    29  23  79 SW5       30.19R WCI  24
FAIRFIELD*     MOCLDY    29  26  88 CALM      30.18R
HARRISBURG*    CLOUDY    32  28  84 CALM      30.19R
ROBINSON*      PTCLDY    27  23  86 W3        30.16R
CARMI*         CLOUDY    32  29  90 W3        30.18R
$$

ABBREVIATIONS USED IN REMARKS
   TC - TEMPERATURE IN CELSIUS
  WCI - WIND CHILL INDEX
   HX - HEAT INDEX
  VSB - VISIBILITY
$$




USA.gov is the U.S. government's official web portal to all federal, state and local government web resources and services.